Weather History for 03955 - November, 2012

Change the Weather History Date:

Thursday, November 22, 2012

  Actual Average Record
Temperature  
Mean Temperature 42 °F -  
Max Temperature 46 °F 48 °F - ()
Min Temperature 35 °F 39 °F - ()
Degree Days  
Heating Degree Days 22    
Moisture  
Dew Point 43 °F    
Average Humidity 95    
Maximum Humidity 100    
Minimum Humidity 87    
Precipitation  
Precipitation 0.31 in 0.17 in - ()
Sea Level Pressure  
Sea Level Pressure 29.43 in    
Wind  
Wind Speed 18 mph ()    
Max Wind Speed 31 mph    
Max Gust Speed 47 mph    
Visibility 6.5 miles    
Events Rain    
T = Trace of Precipitation, MM = Missing Value Source: Averaged Metar Reports

Daily Weather History Graph

Daily Weather History Graph

Search for Another Location

Airport or City:

Trip Planner

Search our weather history database for the weather conditions in past years. The results will help you decide how hot, cold, wet, or windy it might be!

Date:

Astronomy

Nov. 22, 2012 Rise Set
Actual Time 8:05 AM GMT 4:34 PM GMT
Civil Twilight 7:27 AM GMT 5:12 PM GMT
Nautical Twilight 6:45 AM GMT 5:54 PM GMT
Astronomical Twilight 6:05 AM GMT 6:34 PM GMT
Moon 1:48 PM GMT (11/22) 1:32 AM GMT (11/22)
Length of Visible Light 9h 45m
Length of Day
8h 28m
Waxing Gibbous, 69% of the Moon is Illuminated
Nov 22
Waxing Gibbous
Nov 28
Full
Dec 6
Last Quarter
Dec 13
New
Dec 20
First Quarter

Hourly Weather History & Observations

Time (GMT) Temp. Windchill Dew Point Humidity Pressure Visibility Wind Dir Wind Speed Gust Speed Precip Events Conditions
12:00 AM 51 °F - 50 °F 95% 29.54 in 6 mi South 24.6 mph - - Rain Light Rain
12:00 AM 50.0 °F - 50.0 °F 100% 29.53 in 6.2 mi South 24.2 mph 36.8 mph N/A Rain Light Rain
12:30 AM 51.8 °F - 50.0 °F 94% 29.50 in 6.2 mi South 25.3 mph 40.3 mph N/A   Mostly Cloudy
1:00 AM 51.8 °F - 50.0 °F 94% 29.47 in 6.2 mi South 29.9 mph 47.2 mph N/A   Mostly Cloudy
1:30 AM 51.8 °F - 50.0 °F 94% 29.44 in 5.0 mi South 26.5 mph 42.6 mph N/A Rain Light Rain
2:00 AM 50.0 °F - 50.0 °F 100% 29.42 in 6.2 mi South 25.3 mph 38.0 mph N/A Rain Light Rain
2:30 AM 51.8 °F - 50.0 °F 94% 29.42 in 6.2 mi South 31.1 mph 47.2 mph N/A   Mostly Cloudy
3:00 AM 50.0 °F - 50.0 °F 100% 29.42 in 5.0 mi South 27.6 mph 43.7 mph N/A Rain Light Rain
3:30 AM 51.8 °F - 50.0 °F 94% 29.39 in 6.2 mi South 28.8 mph 43.7 mph N/A Rain Light Rain
4:00 AM 51.8 °F - 50.0 °F 94% 29.39 in 6.2 mi SSW 29.9 mph 42.6 mph N/A   Mostly Cloudy
4:30 AM 50.0 °F - 48.2 °F 94% 29.39 in 6.2 mi SSW 28.8 mph 40.3 mph N/A   Mostly Cloudy
5:00 AM 48.2 °F - 46.4 °F 93% 29.42 in 6.2 mi SW 23.0 mph - N/A   Mostly Cloudy
5:30 AM 48.2 °F - 46.4 °F 93% 29.42 in 6.2 mi SW 17.3 mph - N/A   Mostly Cloudy
6:00 AM 46 °F - 44 °F 89% 29.44 in 19 mi SW 13.4 mph - -   Partly Cloudy
6:00 AM 46.4 °F 40.4 °F 44.6 °F 93% 29.42 in 6.2 mi SW 13.8 mph - N/A   Mostly Cloudy
6:30 AM 44.6 °F 38.8 °F 42.8 °F 93% 29.42 in 6.2 mi SW 11.5 mph - N/A Rain Light Rain
7:00 AM 44.6 °F 37.4 °F 42.8 °F 93% 29.42 in 6.2 mi SW 16.1 mph - N/A Rain Light Rain
7:30 AM 44.6 °F 37.4 °F 42.8 °F 93% 29.42 in 6.2 mi SSW 16.1 mph - N/A Rain Light Rain
8:00 AM 42.8 °F 36.6 °F 42.8 °F 100% 29.42 in 6.2 mi SSW 11.5 mph - N/A Rain Light Rain
8:30 AM 42.8 °F 35.4 °F 42.8 °F 100% 29.42 in 6.2 mi SSW 15.0 mph - N/A Rain Light Rain
9:00 AM 42.8 °F 34.8 °F 42.8 °F 100% 29.42 in 6.2 mi SSW 17.3 mph - N/A Rain Light Rain
9:30 AM 42.8 °F 36.2 °F 41.0 °F 93% 29.42 in 6.2 mi SSW 12.7 mph - N/A   Overcast
10:00 AM 42.8 °F 34.8 °F 41.0 °F 93% 29.42 in 6.2 mi SW 17.3 mph - N/A Rain Light Rain
10:30 AM 41.0 °F 33.9 °F 41.0 °F 100% 29.42 in 6.2 mi SSW 12.7 mph - N/A Rain Light Rain
11:00 AM 41.0 °F 33.5 °F 41.0 °F 100% 29.39 in 6.2 mi SW 13.8 mph - N/A Rain Light Rain
11:30 AM 41.0 °F 32.8 °F 41.0 °F 100% 29.39 in 6.2 mi SW 16.1 mph - N/A Rain Light Rain
12:00 PM 41 °F - 40 °F 96% 29.42 in 7 mi SW 15.7 mph - - Rain Light Rain
12:00 PM 41.0 °F 33.1 °F 41.0 °F 100% 29.39 in 6.2 mi SW 15.0 mph - N/A Rain Light Rain
12:30 PM 41.0 °F 34.7 °F 39.2 °F 93% 29.39 in 6.2 mi SW 10.4 mph - N/A   Mostly Cloudy
1:00 PM 41.0 °F 34.7 °F 41.0 °F 100% 29.39 in 6.2 mi SSW 10.4 mph - N/A   Mostly Cloudy
1:30 PM 41.0 °F 35.8 °F 41.0 °F 100% 29.39 in 6.2 mi South 8.1 mph - N/A Rain Light Rain Showers
2:00 PM 42.8 °F 36.2 °F 42.8 °F 100% 29.36 in 6.2 mi South 12.7 mph - N/A   Mostly Cloudy
2:30 PM 44.6 °F 38.8 °F 42.8 °F 93% 29.36 in 6.2 mi SSW 11.5 mph - N/A   Mostly Cloudy
3:00 PM 44.6 °F 37.4 °F 42.8 °F 93% 29.36 in 6.2 mi SSW 16.1 mph - N/A   Mostly Cloudy
3:30 PM 44.6 °F 37.8 °F 42.8 °F 93% 29.36 in 6.2 mi SSW 15.0 mph - N/A   Mostly Cloudy
4:00 PM 44.6 °F 37.2 °F 41.0 °F 87% 29.39 in 6.2 mi WSW 17.3 mph - N/A   Scattered Clouds
4:30 PM 41.0 °F 32.5 °F 39.2 °F 93% 29.39 in 6.2 mi SW 17.3 mph - N/A   Mostly Cloudy
5:00 PM 41.0 °F 34.3 °F 39.2 °F 93% 29.36 in 6.2 mi SSW 11.5 mph - N/A   Scattered Clouds
5:30 PM 41.0 °F 34.3 °F 41.0 °F 100% 29.39 in 6.2 mi SSW 11.5 mph - N/A Rain Light Rain Showers
6:00 PM 42 °F - 40 °F 91% 29.41 in 12 mi SW 17.9 mph - - Rain Light Rain Showers
6:00 PM 42.8 °F 34.8 °F 41.0 °F 93% 29.39 in 6.2 mi SW 17.3 mph - N/A   Scattered Clouds
6:30 PM 41.0 °F 33.5 °F 39.2 °F 93% 29.42 in 6.2 mi WSW 13.8 mph - N/A   Partly Cloudy
7:00 PM 41.0 °F 33.9 °F 39.2 °F 93% 29.44 in 6.2 mi WSW 12.7 mph - N/A   Partly Cloudy
7:30 PM 41.0 °F 34.7 °F 37.4 °F 87% 29.47 in 6.2 mi WSW 10.4 mph - N/A   Partly Cloudy
8:00 PM 39.2 °F 33.0 °F 37.4 °F 93% 29.47 in 6.2 mi SW 9.2 mph - N/A   Partly Cloudy
8:30 PM 39.2 °F 33.6 °F 37.4 °F 93% 29.50 in 6.2 mi SW 8.1 mph - N/A   Partly Cloudy
9:00 PM 39.2 °F 33.6 °F 37.4 °F 93% 29.50 in 6.2 mi WSW 8.1 mph - N/A   Scattered Clouds
9:30 PM 39.2 °F 33.0 °F 37.4 °F 93% 29.53 in 6.2 mi WSW 9.2 mph - N/A   Partly Cloudy
10:00 PM 39.2 °F 33.6 °F 37.4 °F 93% 29.53 in 6.2 mi SW 8.1 mph - N/A   Partly Cloudy
10:30 PM 41.0 °F 34.3 °F 37.4 °F 87% 29.56 in 6.2 mi WSW 11.5 mph - N/A   Partly Cloudy
11:00 PM 41.0 °F 35.8 °F 37.4 °F 87% 29.56 in 6.2 mi SW 8.1 mph - N/A   Partly Cloudy
11:30 PM 35.6 °F 28.6 °F 35.6 °F 100% 29.59 in 6.2 mi SW 9.2 mph - N/A   Partly Cloudy